Year,Month,Day,Hour,Minute,Value (Times are PST for temperature in C)
2014,11,17,00,00,-2.30
2014,11,17,00,01,-2.30
2014,11,17,00,02,-2.30
2014,11,17,00,03,-2.30
2014,11,17,00,04,-2.30
2014,11,17,00,05,-2.30
2014,11,17,00,06,-2.30
2014,11,17,00,07,-2.30
2014,11,17,00,08,-2.30
2014,11,17,00,09,-2.30
2014,11,17,00,10,-2.30
2014,11,17,00,11,-2.30
2014,11,17,00,12,-2.30
2014,11,17,00,13,-2.30
2014,11,17,00,14,-2.30
2014,11,17,00,15,-2.40
2014,11,17,00,16,-2.40
2014,11,17,00,17,-2.40
2014,11,17,00,18,-2.40
2014,11,17,00,19,-2.40
2014,11,17,00,20,-2.40
2014,11,17,00,21,-2.50
2014,11,17,00,22,-2.50
2014,11,17,00,23,-2.50
2014,11,17,00,24,-2.60
2014,11,17,00,25,-2.60
2014,11,17,00,26,-2.70
2014,11,17,00,27,-2.70
2014,11,17,00,28,-2.70
2014,11,17,00,29,-2.80
2014,11,17,00,30,-2.80
2014,11,17,00,31,-2.80
2014,11,17,00,32,-2.80
2014,11,17,00,33,-2.80
2014,11,17,00,34,-2.70
2014,11,17,00,35,-2.70
2014,11,17,00,36,-2.70
2014,11,17,00,37,-2.70
2014,11,17,00,38,-2.60
2014,11,17,00,39,-2.60
2014,11,17,00,40,-2.60
2014,11,17,00,41,-2.60
2014,11,17,00,42,-2.60
2014,11,17,00,43,-2.60
2014,11,17,00,44,-2.60
2014,11,17,00,45,-2.60
2014,11,17,00,46,-2.60
2014,11,17,00,47,-2.60
2014,11,17,00,48,-2.60
2014,11,17,00,49,-2.60
2014,11,17,00,50,-2.60
2014,11,17,00,51,-2.60
2014,11,17,00,52,-2.60
2014,11,17,00,53,-2.60
2014,11,17,00,54,-2.60
2014,11,17,00,55,-2.60
2014,11,17,00,56,-2.60
2014,11,17,00,57,-2.60
2014,11,17,00,58,-2.60
2014,11,17,00,59,-2.70
2014,11,17,01,00,-2.70
2014,11,17,01,01,-2.80
2014,11,17,01,02,-2.80
2014,11,17,01,03,-2.90
2014,11,17,01,04,-2.90
2014,11,17,01,05,-3.00
2014,11,17,01,06,-3.00
2014,11,17,01,07,-3.00
2014,11,17,01,08,-3.00
2014,11,17,01,09,-3.10
2014,11,17,01,10,-3.00
2014,11,17,01,11,-3.00
2014,11,17,01,12,-3.00
2014,11,17,01,13,-3.00
2014,11,17,01,14,-3.00
2014,11,17,01,15,-3.00
2014,11,17,01,16,-3.00
2014,11,17,01,17,-3.00
2014,11,17,01,18,-3.00
2014,11,17,01,19,-3.10
2014,11,17,01,20,-3.10
2014,11,17,01,21,-3.10
2014,11,17,01,22,-3.10
2014,11,17,01,23,-3.10
2014,11,17,01,24,-3.10
2014,11,17,01,25,-3.10
2014,11,17,01,26,-3.10
2014,11,17,01,27,-3.10
2014,11,17,01,28,-3.10
2014,11,17,01,29,-3.10
2014,11,17,01,30,-3.10
2014,11,17,01,31,-3.10
2014,11,17,01,32,-3.10
2014,11,17,01,33,-3.10
2014,11,17,01,34,-3.10
2014,11,17,01,35,-3.10
2014,11,17,01,36,-3.10
2014,11,17,01,37,-3.10
2014,11,17,01,38,-3.10
2014,11,17,01,39,-3.10
2014,11,17,01,40,-3.10
2014,11,17,01,41,-3.00
2014,11,17,01,42,-3.00
2014,11,17,01,43,-3.00
2014,11,17,01,44,-2.90
2014,11,17,01,45,-2.90
2014,11,17,01,46,-2.90
2014,11,17,01,47,-2.90
2014,11,17,01,48,-2.90
2014,11,17,01,49,-2.90
2014,11,17,01,50,-2.90
2014,11,17,01,51,-2.90
2014,11,17,01,52,-2.90
2014,11,17,01,53,-2.90
2014,11,17,01,54,-2.90
2014,11,17,01,55,-2.90
2014,11,17,01,56,-3.00
2014,11,17,01,57,-3.00
2014,11,17,01,58,-3.00
2014,11,17,01,59,-3.00
2014,11,17,02,00,-3.00
2014,11,17,02,01,-3.10
2014,11,17,02,02,-3.10
2014,11,17,02,03,-3.10
2014,11,17,02,04,-3.10
2014,11,17,02,05,-3.10
2014,11,17,02,06,-3.20
2014,11,17,02,07,-3.20
2014,11,17,02,08,-3.20
2014,11,17,02,09,-3.20
2014,11,17,02,10,-3.20
2014,11,17,02,11,-3.30
2014,11,17,02,12,-3.30
2014,11,17,02,13,-3.30
2014,11,17,02,14,-3.30
2014,11,17,02,15,-3.30
2014,11,17,02,16,-3.30
2014,11,17,02,17,-3.40
2014,11,17,02,18,-3.40
2014,11,17,02,19,-3.40
2014,11,17,02,20,-3.30
2014,11,17,02,21,-3.30
2014,11,17,02,22,-3.30
2014,11,17,02,23,-3.30
2014,11,17,02,24,-3.30
2014,11,17,02,25,-3.30
2014,11,17,02,26,-3.30
2014,11,17,02,27,-3.30
2014,11,17,02,28,-3.30
2014,11,17,02,29,-3.30
2014,11,17,02,30,-3.30
2014,11,17,02,31,-3.20
2014,11,17,02,32,-3.20
2014,11,17,02,33,-3.20
2014,11,17,02,34,-3.20
2014,11,17,02,35,-3.20
2014,11,17,02,36,-3.20
2014,11,17,02,37,-3.20
2014,11,17,02,38,-3.20
2014,11,17,02,39,-3.20
2014,11,17,02,40,-3.20
2014,11,17,02,41,-3.30
2014,11,17,02,42,-3.30
2014,11,17,02,43,-3.30
2014,11,17,02,44,-3.40
2014,11,17,02,45,-3.40
2014,11,17,02,46,-3.40
2014,11,17,02,47,-3.50
2014,11,17,02,48,-3.60
2014,11,17,02,49,-3.60
2014,11,17,02,50,-3.60
2014,11,17,02,51,-3.70
2014,11,17,02,52,-3.70
2014,11,17,02,53,-3.70
2014,11,17,02,54,-3.70
2014,11,17,02,55,-3.60
2014,11,17,02,56,-3.60
2014,11,17,02,57,-3.60
2014,11,17,02,58,-3.60
2014,11,17,02,59,-3.60
2014,11,17,03,00,-3.60
2014,11,17,03,01,-3.50
2014,11,17,03,02,-3.50
2014,11,17,03,03,-3.50
2014,11,17,03,04,-3.50
2014,11,17,03,05,-3.50
2014,11,17,03,06,-3.50
2014,11,17,03,07,-3.50
2014,11,17,03,08,-3.50
2014,11,17,03,09,-3.50
2014,11,17,03,10,-3.50
2014,11,17,03,11,-3.50
2014,11,17,03,12,-3.50
2014,11,17,03,13,-3.50
2014,11,17,03,14,-3.50
2014,11,17,03,15,-3.50
2014,11,17,03,16,-3.50
2014,11,17,03,17,-3.40
2014,11,17,03,18,-3.40
2014,11,17,03,19,-3.40
2014,11,17,03,20,-3.40
2014,11,17,03,21,-3.40
2014,11,17,03,22,-3.50
2014,11,17,03,23,-3.50
2014,11,17,03,24,-3.50
2014,11,17,03,25,-3.50
2014,11,17,03,26,-3.50
2014,11,17,03,27,-3.50
2014,11,17,03,28,-3.50
2014,11,17,03,29,-3.50
2014,11,17,03,30,-3.50
2014,11,17,03,31,-3.50
2014,11,17,03,32,-3.50
2014,11,17,03,33,-3.50
2014,11,17,03,34,-3.50
2014,11,17,03,35,-3.40
2014,11,17,03,36,-3.40
2014,11,17,03,37,-3.50
2014,11,17,03,38,-3.50
2014,11,17,03,39,-3.60
2014,11,17,03,40,-3.60
2014,11,17,03,41,-3.60
2014,11,17,03,42,-3.70
2014,11,17,03,43,-3.70
2014,11,17,03,44,-3.70
2014,11,17,03,45,-3.60
2014,11,17,03,46,-3.60
2014,11,17,03,47,-3.60
2014,11,17,03,48,-3.60
2014,11,17,03,49,-3.60
2014,11,17,03,50,-3.60
2014,11,17,03,51,-3.60
2014,11,17,03,52,-3.60
2014,11,17,03,53,-3.60
2014,11,17,03,54,-3.60
2014,11,17,03,55,-3.60
2014,11,17,03,56,-3.60
2014,11,17,03,57,-3.60
2014,11,17,03,58,-3.60
2014,11,17,03,59,-3.60
2014,11,17,04,00,-3.60
2014,11,17,04,01,-3.60
2014,11,17,04,02,-3.50
2014,11,17,04,03,-3.50
2014,11,17,04,04,-3.50
2014,11,17,04,05,-3.50
2014,11,17,04,06,-3.50
2014,11,17,04,07,-3.50
2014,11,17,04,08,-3.50
2014,11,17,04,09,-3.50
2014,11,17,04,10,-3.50
2014,11,17,04,11,-3.50
2014,11,17,04,12,-3.50
2014,11,17,04,13,-3.40
2014,11,17,04,14,-3.50
2014,11,17,04,15,-3.40
2014,11,17,04,16,-3.40
2014,11,17,04,17,-3.40
2014,11,17,04,18,-3.40
2014,11,17,04,19,-3.40
2014,11,17,04,20,-3.50
2014,11,17,04,21,-3.50
2014,11,17,04,22,-3.60
2014,11,17,04,23,-3.60
2014,11,17,04,24,-3.60
2014,11,17,04,25,-3.70
2014,11,17,04,26,-3.70
2014,11,17,04,27,-3.70
2014,11,17,04,28,-3.80
2014,11,17,04,29,-3.80
2014,11,17,04,30,-3.80
2014,11,17,04,31,-3.80
2014,11,17,04,32,-3.90
2014,11,17,04,33,-3.90
2014,11,17,04,34,-3.90
2014,11,17,04,35,-3.90
2014,11,17,04,36,-3.90
2014,11,17,04,37,-3.90
2014,11,17,04,38,-3.90
2014,11,17,04,39,-3.90
2014,11,17,04,40,-3.80
2014,11,17,04,41,-3.80
2014,11,17,04,42,-3.80
2014,11,17,04,43,-3.70
2014,11,17,04,44,-3.70
2014,11,17,04,45,-3.70
2014,11,17,04,46,-3.60
2014,11,17,04,47,-3.60
2014,11,17,04,48,-3.60
2014,11,17,04,49,-3.70
2014,11,17,04,50,-3.70
2014,11,17,04,51,-3.80
2014,11,17,04,52,-3.80
2014,11,17,04,53,-3.80
2014,11,17,04,54,-3.80
2014,11,17,04,55,-3.80
2014,11,17,04,56,-3.80
2014,11,17,04,57,-3.90
2014,11,17,04,58,-3.90
2014,11,17,04,59,-3.90
2014,11,17,05,00,-3.90
2014,11,17,05,01,-3.90
2014,11,17,05,02,-3.90
2014,11,17,05,03,-4.00
2014,11,17,05,04,-4.00
2014,11,17,05,05,-4.00
2014,11,17,05,06,-4.00
2014,11,17,05,07,-4.00
2014,11,17,05,08,-4.00
2014,11,17,05,09,-4.00
2014,11,17,05,10,-4.00
2014,11,17,05,11,-3.90
2014,11,17,05,12,-3.90
2014,11,17,05,13,-3.90
2014,11,17,05,14,-3.90
2014,11,17,05,15,-3.90
2014,11,17,05,16,-3.90
2014,11,17,05,17,-4.00
2014,11,17,05,18,-4.00
2014,11,17,05,19,-4.00
2014,11,17,05,20,-4.00
2014,11,17,05,21,-4.00
2014,11,17,05,22,-3.90
2014,11,17,05,23,-3.90
2014,11,17,05,24,-3.90
2014,11,17,05,25,-3.90
2014,11,17,05,26,-3.80
2014,11,17,05,27,-3.90
2014,11,17,05,28,-3.90
2014,11,17,05,29,-3.90
2014,11,17,05,30,-3.90
2014,11,17,05,31,-3.90
2014,11,17,05,32,-3.90
2014,11,17,05,33,-3.90
2014,11,17,05,34,-3.90
2014,11,17,05,35,-3.90
2014,11,17,05,36,-3.90
2014,11,17,05,37,-3.90
2014,11,17,05,38,-3.90
2014,11,17,05,39,-3.90
2014,11,17,05,40,-3.90
2014,11,17,05,41,-3.90
2014,11,17,05,42,-3.90
2014,11,17,05,43,-3.90
2014,11,17,05,44,-3.90
2014,11,17,05,45,-4.00
2014,11,17,05,46,-4.00
2014,11,17,05,47,-4.00
2014,11,17,05,48,-4.00
2014,11,17,05,49,-4.00
2014,11,17,05,50,-4.00
2014,11,17,05,51,-4.00
2014,11,17,05,52,-3.90
2014,11,17,05,53,-3.90
2014,11,17,05,54,-3.80
2014,11,17,05,55,-3.80
2014,11,17,05,56,-3.80
2014,11,17,05,57,-3.80
2014,11,17,05,58,-3.80
2014,11,17,05,59,-3.80
2014,11,17,06,00,-3.80
2014,11,17,06,01,-3.80
2014,11,17,06,02,-3.80
2014,11,17,06,03,-3.80
2014,11,17,06,04,-3.80
2014,11,17,06,05,-3.80
2014,11,17,06,06,-3.80
2014,11,17,06,07,-3.80
2014,11,17,06,08,-3.80
2014,11,17,06,09,-3.90
2014,11,17,06,10,-3.90
2014,11,17,06,11,-3.90
2014,11,17,06,12,-3.90
2014,11,17,06,13,-3.90
2014,11,17,06,14,-3.90
2014,11,17,06,15,-3.90
2014,11,17,06,16,-3.90
2014,11,17,06,17,-3.90
2014,11,17,06,18,-3.90
2014,11,17,06,19,-3.90
2014,11,17,06,20,-3.90
2014,11,17,06,21,-3.90
2014,11,17,06,22,-4.00
2014,11,17,06,23,-4.00
2014,11,17,06,24,-4.00
2014,11,17,06,25,-4.10
2014,11,17,06,26,-4.10
2014,11,17,06,27,-4.10
2014,11,17,06,28,-4.10
2014,11,17,06,29,-4.10
2014,11,17,06,30,-4.10
2014,11,17,06,31,-4.10
2014,11,17,06,32,-4.10
2014,11,17,06,33,-4.10
2014,11,17,06,34,-4.10
2014,11,17,06,35,-4.10
2014,11,17,06,36,-4.00
2014,11,17,06,37,-4.00
2014,11,17,06,38,-4.00
2014,11,17,06,39,-4.00
2014,11,17,06,40,-4.00
2014,11,17,06,41,-4.00
2014,11,17,06,42,-4.00
2014,11,17,06,43,-4.00
2014,11,17,06,44,-4.00
2014,11,17,06,45,-4.00
2014,11,17,06,46,-4.00
2014,11,17,06,47,-4.00
2014,11,17,06,48,-4.10
2014,11,17,06,49,-4.10
2014,11,17,06,50,-4.10
2014,11,17,06,51,-4.10
2014,11,17,06,52,-4.20
2014,11,17,06,53,-4.20
2014,11,17,06,54,-4.20
2014,11,17,06,55,-4.20
2014,11,17,06,56,-4.20
2014,11,17,06,57,-4.20
2014,11,17,06,58,-4.20
2014,11,17,06,59,-4.20
2014,11,17,07,00,-4.20
2014,11,17,07,01,-4.20
2014,11,17,07,02,-4.20
2014,11,17,07,03,-4.20
2014,11,17,07,04,-4.20
2014,11,17,07,05,-4.20
2014,11,17,07,06,-4.20
2014,11,17,07,07,-4.20
2014,11,17,07,08,-4.20
2014,11,17,07,09,-4.20
2014,11,17,07,10,-4.20
2014,11,17,07,11,-4.20
2014,11,17,07,12,-4.20
2014,11,17,07,13,-4.20
2014,11,17,07,14,-4.20
2014,11,17,07,15,-4.20
2014,11,17,07,16,-4.20
2014,11,17,07,17,-4.20
2014,11,17,07,18,-4.20
2014,11,17,07,19,-4.20
2014,11,17,07,20,-4.20
2014,11,17,07,21,-4.20
2014,11,17,07,22,-4.20
2014,11,17,07,23,-4.20
2014,11,17,07,24,-4.20
2014,11,17,07,25,-4.20
2014,11,17,07,26,-4.20
2014,11,17,07,27,-4.20
2014,11,17,07,28,-4.10
2014,11,17,07,29,-4.10
2014,11,17,07,30,-4.10
2014,11,17,07,31,-4.10
2014,11,17,07,32,-4.10
2014,11,17,07,33,-4.00
2014,11,17,07,34,-4.00
2014,11,17,07,35,-3.90
2014,11,17,07,36,-3.90
2014,11,17,07,37,-3.90
2014,11,17,07,38,-3.90
2014,11,17,07,39,-3.90
2014,11,17,07,40,-3.90
2014,11,17,07,41,-3.90
2014,11,17,07,42,-3.90
2014,11,17,07,43,-3.90
2014,11,17,07,44,-3.90
2014,11,17,07,45,-3.90
2014,11,17,07,46,-3.90
2014,11,17,07,47,-3.90
2014,11,17,07,48,-3.90
2014,11,17,07,49,-3.90
2014,11,17,07,50,-3.90
2014,11,17,07,51,-3.90
2014,11,17,07,52,-3.90
2014,11,17,07,53,-3.90
2014,11,17,07,54,-3.90
2014,11,17,07,55,-3.90
2014,11,17,07,56,-3.90
2014,11,17,07,57,-3.80
2014,11,17,07,58,-3.80
2014,11,17,07,59,-3.80
2014,11,17,08,00,-3.80
2014,11,17,08,01,-3.70
2014,11,17,08,02,-3.70
2014,11,17,08,03,-3.60
2014,11,17,08,04,-3.50
2014,11,17,08,05,-3.50
2014,11,17,08,06,-3.40
2014,11,17,08,07,-3.40
2014,11,17,08,08,-3.30
2014,11,17,08,09,-3.30
2014,11,17,08,10,-3.20
2014,11,17,08,11,-3.20
2014,11,17,08,12,-3.20
2014,11,17,08,13,-3.20
2014,11,17,08,14,-3.10
2014,11,17,08,15,-3.10
2014,11,17,08,16,-3.10
2014,11,17,08,17,-3.00
2014,11,17,08,18,-3.00
2014,11,17,08,19,-2.90
2014,11,17,08,20,-2.90
2014,11,17,08,21,-2.80
2014,11,17,08,22,-2.80
2014,11,17,08,23,-2.80
2014,11,17,08,24,-2.80
2014,11,17,08,25,-2.80
2014,11,17,08,26,-2.80
2014,11,17,08,27,-2.80
2014,11,17,08,28,-2.80
2014,11,17,08,29,-2.80
2014,11,17,08,30,-2.80
2014,11,17,08,31,-2.70
2014,11,17,08,32,-2.70
2014,11,17,08,33,-2.70
2014,11,17,08,34,-2.60
2014,11,17,08,35,-2.60
2014,11,17,08,36,-2.60
2014,11,17,08,37,-2.50
2014,11,17,08,38,-2.50
2014,11,17,08,39,-2.40
2014,11,17,08,40,-2.40
2014,11,17,08,41,-2.30
2014,11,17,08,42,-2.30
2014,11,17,08,43,-2.20
2014,11,17,08,44,-2.20
2014,11,17,08,45,-2.10
2014,11,17,08,46,-2.00
2014,11,17,08,47,-2.00
2014,11,17,08,48,-1.90
2014,11,17,08,49,-1.90
2014,11,17,08,50,-1.80
2014,11,17,08,51,-1.80
2014,11,17,08,52,-1.80
2014,11,17,08,53,-1.70
2014,11,17,08,54,-1.70
2014,11,17,08,55,-1.70
2014,11,17,08,56,-1.60
2014,11,17,08,57,-1.60
2014,11,17,08,58,-1.50
2014,11,17,08,59,-1.50
2014,11,17,09,00,-1.40
2014,11,17,09,01,-1.40
2014,11,17,09,02,-1.30
2014,11,17,09,03,-1.30
2014,11,17,09,04,-1.20
2014,11,17,09,05,-1.20
2014,11,17,09,06,-1.20
2014,11,17,09,07,-1.20
2014,11,17,09,08,-1.20
2014,11,17,09,09,-1.10
2014,11,17,09,10,-1.10
2014,11,17,09,11,-1.10
2014,11,17,09,12,-1.10
2014,11,17,09,13,-1.00
2014,11,17,09,14,-1.00
2014,11,17,09,15,-1.00
2014,11,17,09,16,-0.90
2014,11,17,09,17,-0.90
2014,11,17,09,18,-0.80
2014,11,17,09,19,-0.80
2014,11,17,09,20,-0.80
2014,11,17,09,21,-0.70
2014,11,17,09,22,-0.70
2014,11,17,09,23,-0.60
2014,11,17,09,24,-0.50
2014,11,17,09,25,-0.50
2014,11,17,09,26,-0.40
2014,11,17,09,27,-0.30
2014,11,17,09,28,-0.30
2014,11,17,09,29,-0.20
2014,11,17,09,30,-0.10
2014,11,17,09,31,0.00
2014,11,17,09,32,0.00
2014,11,17,09,33,0.10
2014,11,17,09,34,0.10
2014,11,17,09,35,0.20
2014,11,17,09,36,0.20
2014,11,17,09,37,0.20
2014,11,17,09,38,0.20
2014,11,17,09,39,0.30
2014,11,17,09,40,0.30
2014,11,17,09,41,0.30
2014,11,17,09,42,0.30
2014,11,17,09,43,0.40
2014,11,17,09,44,0.40
2014,11,17,09,45,0.40
2014,11,17,09,46,0.40
2014,11,17,09,47,0.50
2014,11,17,09,48,0.50
2014,11,17,09,49,0.60
2014,11,17,09,50,0.60
2014,11,17,09,51,0.60
2014,11,17,09,52,0.60
2014,11,17,09,53,0.60
2014,11,17,09,54,0.70
2014,11,17,09,55,0.70
2014,11,17,09,56,0.70
2014,11,17,09,57,0.80
2014,11,17,09,58,0.80
2014,11,17,09,59,0.80
2014,11,17,10,00,0.80
2014,11,17,10,01,0.90
2014,11,17,10,02,1.00
2014,11,17,10,03,1.00
2014,11,17,10,04,1.10
2014,11,17,10,05,1.20
2014,11,17,10,06,1.20
2014,11,17,10,07,1.20
2014,11,17,10,08,1.30
2014,11,17,10,09,1.30
2014,11,17,10,10,1.40
2014,11,17,10,11,1.40
2014,11,17,10,12,1.40
2014,11,17,10,13,1.40
2014,11,17,10,14,1.50
2014,11,17,10,15,1.50
2014,11,17,10,16,1.60
2014,11,17,10,17,1.60
2014,11,17,10,18,1.70
2014,11,17,10,19,1.80
2014,11,17,10,20,1.80
2014,11,17,10,21,1.90
2014,11,17,10,22,2.00
2014,11,17,10,23,2.10
2014,11,17,10,24,2.10
2014,11,17,10,25,2.20
2014,11,17,10,26,2.20
2014,11,17,10,27,2.20
2014,11,17,10,28,2.20
2014,11,17,10,29,2.20
2014,11,17,10,30,2.30
2014,11,17,10,31,2.30
2014,11,17,10,32,2.30
2014,11,17,10,33,2.40
2014,11,17,10,34,2.50
2014,11,17,10,35,2.60
2014,11,17,10,36,2.70
2014,11,17,10,37,2.70
2014,11,17,10,38,2.80
2014,11,17,10,39,2.90
2014,11,17,10,40,3.00
2014,11,17,10,41,3.20
2014,11,17,10,42,3.40
2014,11,17,10,43,3.60
2014,11,17,10,44,3.70
2014,11,17,10,45,3.80
2014,11,17,10,46,3.90
2014,11,17,10,47,4.00
2014,11,17,10,48,4.10
2014,11,17,10,49,4.20
2014,11,17,10,50,4.40
2014,11,17,10,51,4.50
2014,11,17,10,52,4.60
2014,11,17,10,53,4.70
2014,11,17,10,54,4.80
2014,11,17,10,55,4.80
2014,11,17,10,56,4.80
2014,11,17,10,57,4.90
2014,11,17,10,58,4.90
2014,11,17,10,59,5.00
2014,11,17,11,00,5.00
2014,11,17,11,01,5.00
2014,11,17,11,02,5.10
2014,11,17,11,03,5.10
2014,11,17,11,04,5.20
2014,11,17,11,05,5.20
2014,11,17,11,06,5.20
2014,11,17,11,07,5.20
2014,11,17,11,08,5.20
2014,11,17,11,09,5.20
2014,11,17,11,10,5.30
2014,11,17,11,11,5.30
2014,11,17,11,12,5.40
2014,11,17,11,13,5.40
2014,11,17,11,14,5.40
2014,11,17,11,15,5.50
2014,11,17,11,16,5.60
2014,11,17,11,17,5.60
2014,11,17,11,18,5.60
2014,11,17,11,19,5.70
2014,11,17,11,20,5.70
2014,11,17,11,21,5.70
2014,11,17,11,22,5.70
2014,11,17,11,23,5.70
2014,11,17,11,24,5.80
2014,11,17,11,25,5.80
2014,11,17,11,26,5.80
2014,11,17,11,27,5.90
2014,11,17,11,28,5.90
2014,11,17,11,29,5.90
2014,11,17,11,30,5.90
2014,11,17,11,31,6.00
2014,11,17,11,32,6.00
2014,11,17,11,33,6.00
2014,11,17,11,34,6.10
2014,11,17,11,35,6.20
2014,11,17,11,36,6.20
2014,11,17,11,37,6.20
2014,11,17,11,38,6.30
2014,11,17,11,39,6.40
2014,11,17,11,40,6.40
2014,11,17,11,41,6.50
2014,11,17,11,42,6.50
2014,11,17,11,43,6.50
2014,11,17,11,44,6.60
2014,11,17,11,45,6.60
2014,11,17,11,46,6.70
2014,11,17,11,47,6.80
2014,11,17,11,48,6.80
2014,11,17,11,49,6.90
2014,11,17,11,50,7.00
2014,11,17,11,51,7.10
2014,11,17,11,52,7.10
2014,11,17,11,53,7.10
2014,11,17,11,54,7.10
2014,11,17,11,55,7.20
2014,11,17,11,56,7.30
2014,11,17,11,57,7.50
2014,11,17,11,58,7.60
2014,11,17,11,59,7.70
2014,11,17,12,00,7.70
2014,11,17,12,01,7.80
2014,11,17,12,02,7.80
2014,11,17,12,03,7.80
2014,11,17,12,04,7.70
2014,11,17,12,05,7.70
2014,11,17,12,06,7.60
2014,11,17,12,07,7.60
2014,11,17,12,08,7.60
2014,11,17,12,09,7.50
2014,11,17,12,10,7.50
2014,11,17,12,11,7.50
2014,11,17,12,12,7.50
2014,11,17,12,13,7.60
2014,11,17,12,14,7.70
2014,11,17,12,15,7.70
2014,11,17,12,16,7.70
2014,11,17,12,17,7.70
2014,11,17,12,18,7.70
2014,11,17,12,19,7.70
2014,11,17,12,20,7.80
2014,11,17,12,21,7.90
2014,11,17,12,22,8.00
2014,11,17,12,23,8.10
2014,11,17,12,24,8.20
2014,11,17,12,25,8.20
2014,11,17,12,26,8.20
2014,11,17,12,27,8.20
2014,11,17,12,28,8.20
2014,11,17,12,29,8.30
2014,11,17,12,30,8.50
2014,11,17,12,31,8.60
2014,11,17,12,32,8.70
2014,11,17,12,33,8.80
2014,11,17,12,34,8.80
2014,11,17,12,35,8.80
2014,11,17,12,36,8.90
2014,11,17,12,37,8.90
2014,11,17,12,38,9.00
2014,11,17,12,39,9.00
2014,11,17,12,40,9.00
2014,11,17,12,41,8.90
2014,11,17,12,42,8.90
2014,11,17,12,43,8.90
2014,11,17,12,44,8.90
2014,11,17,12,45,9.00
2014,11,17,12,46,9.00
2014,11,17,12,47,9.10
2014,11,17,12,48,9.10
2014,11,17,12,49,9.10
2014,11,17,12,50,9.10
2014,11,17,12,51,9.10
2014,11,17,12,52,9.20
2014,11,17,12,53,9.20
2014,11,17,12,54,9.30
2014,11,17,12,55,9.30
2014,11,17,12,56,9.40
2014,11,17,12,57,9.40
2014,11,17,12,58,9.50
2014,11,17,12,59,9.50
2014,11,17,13,00,9.40
2014,11,17,13,01,9.40
2014,11,17,13,02,9.40
2014,11,17,13,03,9.30
2014,11,17,13,04,9.30
2014,11,17,13,05,9.30
2014,11,17,13,06,9.30
2014,11,17,13,07,9.30
2014,11,17,13,08,9.30
2014,11,17,13,09,9.30
2014,11,17,13,10,9.30
2014,11,17,13,11,9.30
2014,11,17,13,12,9.30
2014,11,17,13,13,9.30
2014,11,17,13,14,9.30
2014,11,17,13,15,9.20
2014,11,17,13,16,9.20
2014,11,17,13,17,9.20
2014,11,17,13,18,9.20
2014,11,17,13,19,9.20
2014,11,17,13,20,9.20
2014,11,17,13,21,9.30
2014,11,17,13,22,9.30
2014,11,17,13,23,9.30
2014,11,17,13,24,9.40
2014,11,17,13,25,9.40
2014,11,17,13,26,9.50
2014,11,17,13,27,9.50
2014,11,17,13,28,9.60
2014,11,17,13,29,9.60
2014,11,17,13,30,9.60
2014,11,17,13,31,9.70
2014,11,17,13,32,9.70
2014,11,17,13,33,9.70
2014,11,17,13,34,9.70
2014,11,17,13,35,9.70
2014,11,17,13,36,9.80
2014,11,17,13,37,9.80
2014,11,17,13,38,9.90
2014,11,17,13,39,9.90
2014,11,17,13,40,9.90
2014,11,17,13,41,9.90
2014,11,17,13,42,10.00
2014,11,17,13,43,10.00
2014,11,17,13,44,10.00
2014,11,17,13,45,10.00
2014,11,17,13,46,10.10
2014,11,17,13,47,10.10
2014,11,17,13,48,10.10
2014,11,17,13,49,10.10
2014,11,17,13,50,10.20
2014,11,17,13,51,10.20
2014,11,17,13,52,10.20
2014,11,17,13,53,10.10
2014,11,17,13,54,10.10
2014,11,17,13,55,10.10
2014,11,17,13,56,10.20
2014,11,17,13,57,10.20
2014,11,17,13,58,10.10
2014,11,17,13,59,10.00
2014,11,17,14,00,10.00
2014,11,17,14,01,10.00
2014,11,17,14,02,9.90
2014,11,17,14,03,9.80
2014,11,17,14,04,9.80
2014,11,17,14,05,9.70
2014,11,17,14,06,9.60
2014,11,17,14,07,9.60
2014,11,17,14,08,9.60
2014,11,17,14,09,9.70
2014,11,17,14,10,9.70
2014,11,17,14,11,9.80
2014,11,17,14,12,9.80
2014,11,17,14,13,9.80
2014,11,17,14,14,9.80
2014,11,17,14,15,9.80
2014,11,17,14,16,9.80
2014,11,17,14,17,9.70
2014,11,17,14,18,9.70
2014,11,17,14,19,9.60
2014,11,17,14,20,9.60
2014,11,17,14,21,9.60
2014,11,17,14,22,9.60
2014,11,17,14,23,9.70
2014,11,17,14,24,9.70
2014,11,17,14,25,9.80
2014,11,17,14,26,9.80
2014,11,17,14,27,9.90
2014,11,17,14,28,9.90
2014,11,17,14,29,10.00
2014,11,17,14,30,10.00
2014,11,17,14,31,10.10
2014,11,17,14,32,10.10
2014,11,17,14,33,10.10
2014,11,17,14,34,10.10
2014,11,17,14,35,10.10
2014,11,17,14,36,10.10
2014,11,17,14,37,10.10
2014,11,17,14,38,10.20
2014,11,17,14,39,10.20
2014,11,17,14,40,10.30
2014,11,17,14,41,10.20
2014,11,17,14,42,10.10
2014,11,17,14,43,10.10
2014,11,17,14,44,10.00
2014,11,17,14,45,9.90
2014,11,17,14,46,9.80
2014,11,17,14,47,9.80
2014,11,17,14,48,9.70
2014,11,17,14,49,9.60
2014,11,17,14,50,9.60
2014,11,17,14,51,9.50
2014,11,17,14,52,9.40
2014,11,17,14,53,9.30
2014,11,17,14,54,9.30
2014,11,17,14,55,9.20
2014,11,17,14,56,9.10
2014,11,17,14,57,9.10
2014,11,17,14,58,9.10
2014,11,17,14,59,9.00
2014,11,17,15,00,9.00
2014,11,17,15,01,8.90
2014,11,17,15,02,8.90
2014,11,17,15,03,8.90
2014,11,17,15,04,8.90
2014,11,17,15,05,8.90
2014,11,17,15,06,8.90
2014,11,17,15,07,8.90
2014,11,17,15,08,8.80
2014,11,17,15,09,8.80
2014,11,17,15,10,8.80
2014,11,17,15,11,8.70
2014,11,17,15,12,8.70
2014,11,17,15,13,8.70
2014,11,17,15,14,8.70
2014,11,17,15,15,8.60
2014,11,17,15,16,8.60
2014,11,17,15,17,8.60
2014,11,17,15,18,8.60
2014,11,17,15,19,8.60
2014,11,17,15,20,8.50
2014,11,17,15,21,8.50
2014,11,17,15,22,8.50
2014,11,17,15,23,8.40
2014,11,17,15,24,8.40
2014,11,17,15,25,8.40
2014,11,17,15,26,8.40
2014,11,17,15,27,8.40
2014,11,17,15,28,8.40
2014,11,17,15,29,8.30
2014,11,17,15,30,8.30
2014,11,17,15,31,8.30
2014,11,17,15,32,8.30
2014,11,17,15,33,8.30
2014,11,17,15,34,8.30
2014,11,17,15,35,8.30
2014,11,17,15,36,8.30
2014,11,17,15,37,8.30
2014,11,17,15,38,8.30
2014,11,17,15,39,8.20
2014,11,17,15,40,8.20
2014,11,17,15,41,8.20
2014,11,17,15,42,8.10
2014,11,17,15,43,8.10
2014,11,17,15,44,8.10
2014,11,17,15,45,8.00
2014,11,17,15,46,8.00
2014,11,17,15,47,8.00
2014,11,17,15,48,7.90
2014,11,17,15,49,7.90
2014,11,17,15,50,7.90
2014,11,17,15,51,7.90
2014,11,17,15,52,7.80
2014,11,17,15,53,7.80
2014,11,17,15,54,7.80
2014,11,17,15,55,7.80
2014,11,17,15,56,7.80
2014,11,17,15,57,7.80
2014,11,17,15,58,7.80
2014,11,17,15,59,7.70
2014,11,17,16,00,7.70
2014,11,17,16,01,7.70
2014,11,17,16,02,7.70
2014,11,17,16,03,7.70
2014,11,17,16,04,7.70
2014,11,17,16,05,7.60
2014,11,17,16,06,7.60
2014,11,17,16,07,7.60
2014,11,17,16,08,7.60
2014,11,17,16,09,7.60
2014,11,17,16,10,7.50
2014,11,17,16,11,7.50
2014,11,17,16,12,7.50
2014,11,17,16,13,7.40
2014,11,17,16,14,7.40
2014,11,17,16,15,7.40
2014,11,17,16,16,7.30
2014,11,17,16,17,7.30
2014,11,17,16,18,7.30
2014,11,17,16,19,7.30
2014,11,17,16,20,7.20
2014,11,17,16,21,7.20
2014,11,17,16,22,7.20
2014,11,17,16,23,7.20
2014,11,17,16,24,7.10
2014,11,17,16,25,7.10
2014,11,17,16,26,7.10
2014,11,17,16,27,7.00
2014,11,17,16,28,7.00
2014,11,17,16,29,7.00
2014,11,17,16,30,6.90
2014,11,17,16,31,6.90
2014,11,17,16,32,6.80
2014,11,17,16,33,6.80
2014,11,17,16,34,6.70
2014,11,17,16,35,6.70
2014,11,17,16,36,6.60
2014,11,17,16,37,6.60
2014,11,17,16,38,6.50
2014,11,17,16,39,6.40
2014,11,17,16,40,6.30
2014,11,17,16,41,6.30
2014,11,17,16,42,6.30
2014,11,17,16,43,6.20
2014,11,17,16,44,6.20
2014,11,17,16,45,6.20
2014,11,17,16,46,6.20
2014,11,17,16,47,6.10
2014,11,17,16,48,6.10
2014,11,17,16,49,6.10
2014,11,17,16,50,6.00
2014,11,17,16,51,5.90
2014,11,17,16,52,5.90
2014,11,17,16,53,5.80
2014,11,17,16,54,5.80
2014,11,17,16,55,5.80
2014,11,17,16,56,5.70
2014,11,17,16,57,5.70
2014,11,17,16,58,5.70
2014,11,17,16,59,5.60
2014,11,17,17,00,5.50
2014,11,17,17,01,5.50
2014,11,17,17,02,5.40
2014,11,17,17,03,5.40
2014,11,17,17,04,5.30
2014,11,17,17,05,5.30
2014,11,17,17,06,5.30
2014,11,17,17,07,5.20
2014,11,17,17,08,5.20
2014,11,17,17,09,5.10
2014,11,17,17,10,5.00
2014,11,17,17,11,5.00
2014,11,17,17,12,4.90
2014,11,17,17,13,4.90
2014,11,17,17,14,4.80
2014,11,17,17,15,4.80
2014,11,17,17,16,4.80
2014,11,17,17,17,4.80
2014,11,17,17,18,4.70
2014,11,17,17,19,4.70
2014,11,17,17,20,4.70
2014,11,17,17,21,4.70
2014,11,17,17,22,4.60
2014,11,17,17,23,4.60
2014,11,17,17,24,4.60
2014,11,17,17,25,4.50
2014,11,17,17,26,4.50
2014,11,17,17,27,4.50
2014,11,17,17,28,4.50
2014,11,17,17,29,4.50
2014,11,17,17,30,4.50
2014,11,17,17,31,4.40
2014,11,17,17,32,4.40
2014,11,17,17,33,4.40
2014,11,17,17,34,4.40
2014,11,17,17,35,4.40
2014,11,17,17,36,4.30
2014,11,17,17,37,4.30
2014,11,17,17,38,4.30
2014,11,17,17,39,4.20